Weather History for Palacios, TX

Change the Weather History Date:

Saturday, August 24, 2013

  Actual Average Record
Temperature  
Mean Temperature 83 °F -  
Max Temperature 93 °F 90 °F 97 °F (1980)
Min Temperature 75 °F 75 °F 64 °F (1961)
Cooling Degree Days 18    
Growing Degree Days 33 (Base 50)    
Moisture  
Dew Point 74 °F    
Average Humidity 74    
Maximum Humidity 94    
Minimum Humidity 52    
Precipitation  
Precipitation 0.00 in - - ()
Sea Level Pressure  
Sea Level Pressure 29.97 in    
Wind  
Wind Speed 7 mph (ENE)    
Max Wind Speed 21 mph    
Max Gust Speed 28 mph    
Visibility 9 miles    
Events      
Averages and records for this station are not official NWS values.
T = Trace of Precipitation, MM = Missing Value Source: NWS Daily Summary

Daily Weather History Graph

Daily Weather History Graph

Search for Another Location

Airport:

Trip Planner

Search our weather history database for the weather conditions in past years. The results will help you decide how hot, cold, wet, or windy it might be!

Date:

Astronomy

Aug. 24, 2013 Rise Set
Actual Time 6:59 AM CDT 7:54 PM CDT
Civil Twilight 6:34 AM CDT 8:19 PM CDT
Nautical Twilight 6:05 AM CDT 8:47 PM CDT
Astronomical Twilight 5:36 AM CDT 9:17 PM CDT
Moon 10:16 PM CDT (8/24) 10:35 AM CDT (8/24)
Length of Visible Light 13h 44m
Length of Day
12h 55m
Waning Gibbous, 84% of the Moon is Illuminated
Aug 24
Waning Gibbous
Aug 28
Last Quarter
Sep 5
New
Sep 12
First Quarter
Sep 19
Full

Hourly Weather History & Observations

Time (CDT) Temp. Heat Index Dew Point Humidity Pressure Visibility Wind Dir Wind Speed Gust Speed Precip Events Conditions
12:53 AM 81.0 °F 86.7 °F 75.0 °F 82% 29.95 in 10.0 mi Calm Calm - N/A   Clear
1:53 AM 78.1 °F - 75.0 °F 90% 29.94 in 10.0 mi Calm Calm - N/A   Clear
2:53 AM 77.0 °F - 75.0 °F 94% 29.94 in 9.0 mi NNE 3.5 mph - N/A   Clear
3:53 AM 77.0 °F - 75.0 °F 94% 29.94 in 9.0 mi NE 4.6 mph - N/A   Clear
4:53 AM 77.0 °F - 73.9 °F 90% 29.94 in 8.0 mi NE 3.5 mph - N/A   Clear
5:53 AM 75.9 °F - 73.9 °F 94% 29.95 in 6.0 mi North 5.8 mph - N/A   Clear
6:53 AM 75.9 °F - 73.9 °F 94% 29.96 in 6.0 mi North 4.6 mph - N/A   Clear
7:53 AM 77.0 °F - 75.0 °F 94% 29.98 in 4.0 mi North 6.9 mph - N/A   Clear
8:53 AM 81.0 °F 87.3 °F 75.9 °F 85% 29.99 in 8.0 mi North 11.5 mph - N/A   Clear
9:53 AM 86.0 °F 96.0 °F 75.9 °F 72% 30.01 in 10.0 mi NNE 13.8 mph - N/A   Clear
10:38 AM 87.8 °F 97.6 °F 75.2 °F 66% 30.00 in 10.0 mi NNE 12.7 mph 18.4 mph N/A   Mostly Cloudy
10:53 AM 89.1 °F 99.1 °F 75.0 °F 63% 30.01 in 10.0 mi NNE 11.5 mph - N/A   Scattered Clouds
11:53 AM 90.0 °F 97.9 °F 73.0 °F 57% 30.00 in 10.0 mi ENE 10.4 mph - N/A   Partly Cloudy
12:53 PM 91.9 °F 99.5 °F 72.0 °F 52% 29.98 in 10.0 mi ENE 12.7 mph - N/A   Clear
1:53 PM 91.9 °F 100.7 °F 73.0 °F 54% 29.98 in 10.0 mi ESE 11.5 mph - N/A   Partly Cloudy
2:53 PM 90.0 °F 100.2 °F 75.0 °F 61% 29.97 in 10.0 mi ESE 15.0 mph - N/A   Clear
3:53 PM 90.0 °F 99.0 °F 73.9 °F 59% 29.95 in 10.0 mi ESE 15.0 mph - N/A   Clear
4:53 PM 89.1 °F 94.1 °F 70.0 °F 53% 29.94 in 10.0 mi East 20.7 mph 26.5 mph N/A   Clear
5:53 PM 88.0 °F 93.8 °F 71.1 °F 57% 29.94 in 10.0 mi East 20.7 mph 27.6 mph N/A   Clear
6:53 PM 86.0 °F 91.5 °F 71.1 °F 61% 29.94 in 10.0 mi East 17.3 mph - N/A   Clear
7:53 PM 84.0 °F 89.6 °F 72.0 °F 67% 29.94 in 10.0 mi East 9.2 mph - N/A   Clear
8:53 PM 81.0 °F 85.2 °F 72.0 °F 74% 29.96 in 10.0 mi East 6.9 mph - N/A   Clear
9:53 PM 81.0 °F 86.2 °F 73.9 °F 79% 29.97 in 10.0 mi East 5.8 mph - N/A   Clear
10:53 PM 80.1 °F 84.5 °F 73.9 °F 81% 29.99 in 10.0 mi East 3.5 mph - N/A   Clear
11:53 PM 80.1 °F 85.1 °F 75.0 °F 85% 29.99 in 10.0 mi East 4.6 mph - N/A   Clear